| time (UTC) | temp F | wind direction | speed MPH | gust MPH | rain 1hr in | rain 24hr in | rain mn in | humidity % | barometer mb |
| 20260505012128 | 63 | 152 | 2.0 | 5.0 | 0.00 | 0.00 | 0.00 | 49 | 1007.1 |
| 20260505011624 | 63 | 34 | 1.0 | 8.0 | 0.00 | 0.00 | 0.00 | 48 | 1007.4 |
| 20260505011122 | 63 | 249 | 4.0 | 9.0 | 0.00 | 0.00 | 0.00 | 47 | 1007.0 |
| 20260505010617 | 63 | 282 | 2.0 | 7.0 | 0.00 | 0.00 | 0.00 | 47 | 1007.0 |
| 20260505010114 | 64 | 262 | 5.0 | 10.0 | 0.00 | 0.00 | 0.00 | 46 | 1007.0 |
| 20260505005610 | 64 | 62 | 0.0 | 5.0 | 0.00 | 0.00 | 0.00 | 47 | 1006.6 |
| 20260505005107 | 64 | 41 | 0.0 | 8.0 | 0.00 | 0.00 | 0.00 | 45 | 1006.7 |
| 20260505004604 | 64 | 110 | 2.0 | 7.0 | 0.00 | 0.00 | 0.00 | 45 | 1006.5 |
| 20260505004101 | 64 | 257 | 4.0 | 11.0 | 0.00 | 0.00 | 0.00 | 44 | 1006.4 |
| 20260505003558 | 65 | 273 | 2.0 | 6.0 | 0.00 | 0.00 | 0.00 | 43 | 1006.4 |
| 20260505003056 | 65 | 328 | 2.0 | 7.0 | 0.00 | 0.00 | 0.00 | 42 | 1006.2 |
| 20260505002555 | 65 | 300 | 1.0 | 4.0 | 0.00 | 0.00 | 0.00 | 40 | 1005.7 |
| 20260505002049 | 65 | 259 | 2.0 | 3.0 | 0.00 | 0.00 | 0.00 | 40 | 1005.7 |
| 20260505001546 | 65 | 283 | 0.0 | 4.0 | 0.00 | 0.00 | 0.00 | 41 | 1005.5 |
| 20260505001043 | 65 | 295 | 1.0 | 2.0 | 0.00 | 0.00 | 0.00 | 39 | 1005.6 |
| 20260505000541 | 66 | 276 | 1.0 | 4.0 | 0.00 | 0.00 | 0.00 | 40 | 1005.4 |
| 20260505000038 | 66 | 263 | 0.0 | 3.0 | 0.00 | 0.00 | 0.00 | 39 | 1005.4 |
| 20260504235535 | 66 | 245 | 0.0 | 2.0 | 0.00 | 0.00 | 0.00 | 40 | 1005.2 |
| 20260504235032 | 66 | 73 | 2.0 | 4.0 | 0.00 | 0.00 | 0.00 | 38 | 1005.3 |
| 20260504234529 | 67 | 263 | 2.0 | 4.0 | 0.00 | 0.00 | 0.00 | 37 | 1005.0 |
| 20260504234026 | 67 | 142 | 0.0 | 2.0 | 0.00 | 0.00 | 0.00 | 38 | 1005.0 |
| 20260504233521 | 68 | 178 | 0.0 | 8.0 | 0.00 | 0.00 | 0.00 | 37 | 1004.9 |
| 20260504233018 | 68 | 295 | 2.0 | 7.0 | 0.00 | 0.00 | 0.00 | 35 | 1005.0 |
| 20260504232515 | 68 | 299 | 0.0 | 3.0 | 0.00 | 0.00 | 0.00 | 38 | 1005.0 |
| 20260504232013 | 68 | 272 | 2.0 | 5.0 | 0.00 | 0.00 | 0.00 | 35 | 1004.9 |
| 20260504231509 | 68 | 306 | 0.0 | 5.0 | 0.00 | 0.00 | 0.00 | 37 | 1004.9 |
| 20260504231005 | 69 | 309 | 1.0 | 4.0 | 0.00 | 0.00 | 0.00 | 34 | 1004.7 |
| 20260504230502 | 69 | 10 | 2.0 | 5.0 | 0.00 | 0.00 | 0.00 | 34 | 1004.7 |
| 20260504230001 | 69 | 267 | 2.0 | 8.0 | 0.00 | 0.00 | 0.00 | 34 | 1004.6 |
| 20260504225457 | 70 | 281 | 2.0 | 7.0 | 0.00 | 0.00 | 0.00 | 33 | 1004.4 |
| 20260504224954 | 70 | 285 | 13.0 | 13.0 | 0.00 | 0.00 | 0.00 | 32 | 1004.4 |
| 20260504224450 | 70 | 285 | 6.0 | 13.0 | 0.00 | 0.00 | 0.00 | 32 | 1004.6 |
| 20260504223948 | 70 | 265 | 3.0 | 6.0 | 0.00 | 0.00 | 0.00 | 32 | 1004.4 |
| 20260504223444 | 70 | 309 | 4.0 | 9.0 | 0.00 | 0.00 | 0.00 | 33 | 1004.3 |
| 20260504222940 | 71 | 268 | 5.0 | 7.0 | 0.00 | 0.00 | 0.00 | 33 | 1004.4 |
| 20260504222437 | 71 | 266 | 4.0 | 5.0 | 0.00 | 0.00 | 0.00 | 33 | 1004.4 |
| 20260504221935 | 71 | 182 | 0.0 | 7.0 | 0.00 | 0.00 | 0.00 | 33 | 1004.4 |
| 20260504221432 | 71 | 296 | 3.0 | 4.0 | 0.00 | 0.00 | 0.00 | 32 | 1004.7 |
| 20260504220929 | 71 | 300 | 3.0 | 11.0 | 0.00 | 0.00 | 0.00 | 32 | 1004.4 |
| 20260504220425 | 71 | 283 | 5.0 | 7.0 | 0.00 | 0.00 | 0.00 | 34 | 1004.4 |
| 20260504215922 | 71 | 304 | 4.0 | 9.0 | 0.00 | 0.00 | 0.00 | 31 | 1004.3 |
| 20260504215419 | 71 | 248 | 3.0 | 6.0 | 0.00 | 0.00 | 0.00 | 32 | 1004.4 |
| 20260504214916 | 71 | 307 | 3.0 | 7.0 | 0.00 | 0.00 | 0.00 | 33 | 1004.4 |
| 20260504214412 | 71 | 242 | 6.0 | 20.0 | 0.00 | 0.00 | 0.00 | 31 | 1004.0 |
| 20260504213909 | 70 | 265 | 3.0 | 10.0 | 0.00 | 0.00 | 0.00 | 33 | 1004.3 |
| 20260504213405 | 71 | 271 | 6.0 | 10.0 | 0.00 | 0.00 | 0.00 | 31 | 1004.4 |
| 20260504212903 | 71 | 302 | 2.0 | 11.0 | 0.00 | 0.00 | 0.00 | 31 | 1004.5 |
| 20260504212358 | 72 | 284 | 6.0 | 14.0 | 0.00 | 0.00 | 0.00 | 30 | 1004.4 |
| 20260504211856 | 72 | 245 | 5.0 | 9.0 | 0.00 | 0.00 | 0.00 | 31 | 1004.3 |
| 20260504211352 | 73 | 271 | 5.0 | 7.0 | 0.00 | 0.00 | 0.00 | 32 | 1004.3 |
| 20260504210850 | 73 | 321 | 7.0 | 13.0 | 0.00 | 0.00 | 0.00 | 31 | 1004.3 |
| 20260504210346 | 73 | 285 | 4.0 | 7.0 | 0.00 | 0.00 | 0.00 | 33 | 1004.2 |
| 20260504205843 | 72 | 314 | 4.0 | 13.0 | 0.00 | 0.00 | 0.00 | 30 | 1004.5 |
| 20260504205341 | 73 | 238 | 4.0 | 11.0 | 0.00 | 0.00 | 0.00 | 31 | 1004.2 |
| 20260504204839 | 72 | 308 | 5.0 | 11.0 | 0.00 | 0.00 | 0.00 | 30 | 1004.2 |
| 20260504204337 | 73 | 261 | 6.0 | 9.0 | 0.00 | 0.00 | 0.00 | 31 | 1004.3 |
| 20260504203836 | 73 | 301 | 2.0 | 10.0 | 0.00 | 0.00 | 0.00 | 29 | 1004.1 |
| 20260504203333 | 74 | 295 | 5.0 | 8.0 | 0.00 | 0.00 | 0.00 | 29 | 1004.1 |
| 20260504202828 | 73 | 307 | 3.0 | 9.0 | 0.00 | 0.00 | 0.00 | 30 | 1004.2 |
| 20260504202326 | 72 | 296 | 6.0 | 17.0 | 0.00 | 0.00 | 0.00 | 29 | 1004.4 |
| 20260504201822 | 71 | 260 | 5.0 | 25.0 | 0.00 | 0.00 | 0.00 | 34 | 1004.2 |
| 20260504201320 | 72 | 274 | 11.0 | 14.0 | 0.00 | 0.00 | 0.00 | 30 | 1004.0 |
| 20260504200817 | 72 | 312 | 7.0 | 14.0 | 0.00 | 0.00 | 0.00 | 30 | 1004.2 |
| 20260504200314 | 72 | 251 | 6.0 | 7.0 | 0.00 | 0.00 | 0.00 | 31 | 1004.2 |
| 20260504195810 | 72 | 0 | 3.0 | 16.0 | 0.00 | 0.00 | 0.00 | 28 | 1004.2 |
| 20260504195306 | 73 | 305 | 7.0 | 11.0 | 0.00 | 0.00 | 0.00 | 30 | 1004.2 |
| 20260504194803 | 73 | 230 | 2.0 | 7.0 | 0.00 | 0.00 | 0.00 | 30 | 1004.2 |
| 20260504194259 | 73 | 254 | 8.0 | 12.0 | 0.00 | 0.00 | 0.00 | 30 | 1004.4 |
| 20260504193755 | 72 | 289 | 8.0 | 15.0 | 0.00 | 0.00 | 0.00 | 29 | 1004.3 |
| 20260504193253 | 73 | 284 | 10.0 | 13.0 | 0.00 | 0.00 | 0.00 | 28 | 1004.1 |
| 20260504192751 | 74 | 345 | 5.0 | 9.0 | 0.00 | 0.00 | 0.00 | 28 | 1004.2 |
| 20260504192249 | 73 | 321 | 3.0 | 10.0 | 0.00 | 0.00 | 0.00 | 30 | 1004.4 |
| 20260504191747 | 72 | 251 | 6.0 | 7.0 | 0.00 | 0.00 | 0.00 | 29 | 1004.4 |
| 20260504191244 | 71 | 266 | 10.0 | 13.0 | 0.00 | 0.00 | 0.00 | 30 | 1004.4 |
| 20260504190739 | 70 | 288 | 6.0 | 11.0 | 0.00 | 0.00 | 0.00 | 30 | 1004.5 |
| 20260504190236 | 69 | 299 | 7.0 | 16.0 | 0.00 | 0.00 | 0.00 | 30 | 1004.5 |
| 20260504185732 | 72 | 288 | 17.0 | 17.0 | 0.00 | 0.00 | 0.00 | 29 | 1004.6 |
| 20260504185230 | 72 | 248 | 5.0 | 12.0 | 0.00 | 0.00 | 0.00 | 32 | 1004.8 |
| 20260504184726 | 72 | 77 | 4.0 | 13.0 | 0.00 | 0.00 | 0.00 | 31 | 1004.5 |
| 20260504184222 | 73 | 264 | 7.0 | 17.0 | 0.00 | 0.00 | 0.00 | 29 | 1004.5 |
| 20260504183718 | 72 | 262 | 3.0 | 10.0 | 0.00 | 0.00 | 0.00 | 32 | 1004.7 |
| 20260504183215 | 71 | 277 | 5.0 | 15.0 | 0.00 | 0.00 | 0.00 | 30 | 1004.8 |
| 20260504182713 | 71 | 301 | 4.0 | 13.0 | 0.00 | 0.00 | 0.00 | 29 | 1005.0 |
| 20260504182210 | 71 | 252 | 3.0 | 12.0 | 0.00 | 0.00 | 0.00 | 32 | 1004.8 |
| 20260504181707 | 72 | 351 | 8.0 | 15.0 | 0.00 | 0.00 | 0.00 | 29 | 1004.8 |
| 20260504181205 | 72 | 283 | 5.0 | 15.0 | 0.00 | 0.00 | 0.00 | 28 | 1004.8 |
| 20260504180704 | 71 | 309 | 4.0 | 11.0 | 0.00 | 0.00 | 0.00 | 31 | 1004.7 |
| 20260504180202 | 70 | 239 | 5.0 | 12.0 | 0.00 | 0.00 | 0.00 | 31 | 1004.8 |
| 20260504175659 | 71 | 274 | 3.0 | 10.0 | 0.00 | 0.00 | 0.00 | 29 | 1004.9 |
| 20260504175155 | 70 | 282 | 16.0 | 16.0 | 0.00 | 0.00 | 0.00 | 32 | 1004.8 |
| 20260504174653 | 70 | 282 | 12.0 | 14.0 | 0.00 | 0.00 | 0.00 | 30 | 1005.0 |
| 20260504174150 | 70 | 243 | 2.0 | 16.0 | 0.00 | 0.00 | 0.00 | 33 | 1005.0 |
| 20260504173647 | 70 | 19 | 8.0 | 12.0 | 0.00 | 0.00 | 0.00 | 29 | 1004.9 |
| 20260504173144 | 70 | 278 | 16.0 | 16.0 | 0.00 | 0.00 | 0.00 | 30 | 1005.0 |
| 20260504172641 | 70 | 290 | 3.0 | 8.0 | 0.00 | 0.00 | 0.00 | 29 | 1005.2 |
| 20260504172137 | 70 | 180 | 10.0 | 16.0 | 0.00 | 0.00 | 0.00 | 31 | 1005.3 |
| 20260504171634 | 68 | 292 | 3.0 | 18.0 | 0.00 | 0.00 | 0.00 | 32 | 1005.1 |
| 20260504171131 | 69 | 242 | 6.0 | 12.0 | 0.00 | 0.00 | 0.00 | 31 | 1005.1 |
| 20260504170627 | 70 | 274 | 9.0 | 14.0 | 0.00 | 0.00 | 0.00 | 31 | 1005.5 |
| 20260504170125 | 69 | 265 | 5.0 | 13.0 | 0.00 | 0.00 | 0.00 | 32 | 1005.4 |
| 20260504151011 | 65 | 276 | 14.0 | 14.0 | 0.00 | 0.00 | 0.00 | 37 | 1006.1 |
| 20260504150508 | 65 | 298 | 10.0 | 26.0 | 0.00 | 0.00 | 0.00 | 37 | 1006.1 |
| 20260504140934 | 61 | 258 | 6.0 | 15.0 | 0.00 | 0.00 | 0.00 | 42 | 1007.1 |
| 20260504140430 | 61 | 292 | 7.0 | 14.0 | 0.00 | 0.00 | 0.00 | 40 | 1007.2 |
| 20260504130355 | 58 | 263 | 4.0 | 16.0 | 0.00 | 0.00 | 0.00 | 46 | 1007.6 |
| 20260504120318 | 51 | 314 | 2.0 | 4.0 | 0.00 | 0.00 | 0.00 | 55 | 1008.4 |
| 20260504110242 | 46 | 70 | 2.0 | 3.0 | 0.00 | 0.00 | 0.00 | 68 | 1008.6 |
| 20260504100200 | 44 | 89 | 0.0 | 3.0 | 0.00 | 0.00 | 0.00 | 68 | 1008.3 |
| 20260504090122 | 43 | 106 | 0.0 | 3.0 | 0.00 | 0.00 | 0.00 | 67 | 1008.0 |
| 20260504081553 | 43 | 76 | 0.0 | 3.0 | 0.00 | 0.00 | 0.00 | 69 | 1008.4 |
| 20260504081048 | 43 | 230 | 0.0 | 2.0 | 0.00 | 0.00 | 0.00 | 72 | 1008.3 |
| 20260504080545 | 42 | 235 | 1.0 | 2.0 | 0.00 | 0.00 | 0.00 | 73 | 1008.1 |
| 20260504050358 | 36 | 49 | 0.0 | 1.0 | 0.00 | 0.00 | 0.00 | 87 | 1008.1 |
| 20260504045855 | 36 | 41 | 0.0 | 2.0 | 0.00 | 0.00 | 0.00 | 84 | 1008.2 |
| 20260504045350 | 36 | 295 | 0.0 | 2.0 | 0.00 | 0.00 | 0.00 | 85 | 1008.1 |
| 20260504044847 | 36 | 65 | 0.0 | 3.0 | 0.00 | 0.00 | 0.00 | 85 | 1008.2 |
| 20260504044345 | 36 | 141 | 0.0 | 2.0 | 0.00 | 0.00 | 0.00 | 87 | 1008.0 |
| 20260504043842 | 37 | 111 | 0.0 | 3.0 | 0.00 | 0.00 | 0.00 | 85 | 1008.1 |
| 20260504043339 | 37 | 69 | 0.0 | 2.0 | 0.00 | 0.00 | 0.00 | 81 | 1008.1 |
| 20260504042836 | 37 | 249 | 0.0 | 1.0 | 0.00 | 0.00 | 0.00 | 81 | 1008.1 |
| 20260504042332 | 37 | 94 | 2.0 | 2.0 | 0.00 | 0.00 | 0.00 | 79 | 1008.1 |
| 20260504041829 | 37 | 135 | 0.0 | 2.0 | 0.00 | 0.00 | 0.00 | 79 | 1008.2 |
| 20260504041325 | 37 | 114 | 1.0 | 3.0 | 0.00 | 0.00 | 0.00 | 80 | 1008.1 |
| 20260504040821 | 37 | 103 | 1.0 | 2.0 | 0.00 | 0.00 | 0.00 | 82 | 1008.0 |
| 20260504040319 | 37 | 89 | 0.0 | 0.0 | 0.00 | 0.00 | 0.00 | 83 | 1008.1 |
| 20260504035815 | 37 | 133 | 1.0 | 2.0 | 0.00 | 0.02 | 0.02 | 83 | 1007.9 |
| 20260504035312 | 37 | 210 | 1.0 | 3.0 | 0.00 | 0.02 | 0.02 | 81 | 1007.9 |
| 20260504034809 | 38 | 122 | 1.0 | 3.0 | 0.00 | 0.02 | 0.02 | 79 | 1007.8 |
| 20260504034307 | 38 | 269 | 0.0 | 3.0 | 0.00 | 0.02 | 0.02 | 80 | 1007.9 |
| 20260504033804 | 37 | 103 | 0.0 | 2.0 | 0.00 | 0.02 | 0.02 | 80 | 1007.8 |
| 20260504033302 | 38 | 110 | 0.0 | 2.0 | 0.00 | 0.02 | 0.02 | 80 | 1007.9 |
| 20260504032758 | 37 | 192 | 0.0 | 1.0 | 0.00 | 0.02 | 0.02 | 82 | 1007.9 |
| 20260504032255 | 38 | 86 | 2.0 | 3.0 | 0.00 | 0.02 | 0.02 | 80 | 1007.7 |
| 20260504031752 | 38 | 96 | 0.0 | 2.0 | 0.00 | 0.02 | 0.02 | 80 | 1008.0 |
| 20260504031249 | 38 | 98 | 1.0 | 3.0 | 0.00 | 0.02 | 0.02 | 81 | 1007.9 |
| 20260504030745 | 38 | 96 | 0.0 | 2.0 | 0.00 | 0.02 | 0.02 | 80 | 1007.9 |
| 20260504030243 | 37 | 54 | 1.0 | 2.0 | 0.00 | 0.02 | 0.02 | 82 | 1008.0 |
| 20260504025739 | 37 | 89 | 0.0 | 2.0 | 0.00 | 0.02 | 0.02 | 83 | 1007.9 |
| 20260504025236 | 37 | 105 | 1.0 | 2.0 | 0.00 | 0.02 | 0.02 | 82 | 1007.9 |
| 20260504024733 | 38 | 136 | 0.0 | 2.0 | 0.00 | 0.02 | 0.02 | 81 | 1007.9 |
| 20260504024229 | 39 | 121 | 0.0 | 2.0 | 0.00 | 0.02 | 0.02 | 79 | 1007.7 |
| 20260504023726 | 39 | 100 | 1.0 | 3.0 | 0.00 | 0.02 | 0.02 | 76 | 1007.8 |
| 20260504023222 | 39 | 89 | 0.0 | 2.0 | 0.00 | 0.02 | 0.02 | 76 | 1007.8 |
| 20260504022718 | 40 | 76 | 0.0 | 0.0 | 0.00 | 0.02 | 0.02 | 77 | 1008.0 |
| 20260504022215 | 40 | 97 | 2.0 | 3.0 | 0.00 | 0.02 | 0.02 | 75 | 1007.7 |
| 20260504021712 | 39 | 94 | 1.0 | 2.0 | 0.00 | 0.02 | 0.02 | 78 | 1007.7 |
| 20260504021209 | 39 | 131 | 0.0 | 3.0 | 0.00 | 0.02 | 0.02 | 83 | 1007.5 |
| 20260504020706 | 39 | 125 | 0.0 | 2.0 | 0.00 | 0.02 | 0.02 | 82 | 1007.8 |
| 20260504020202 | 39 | 116 | 0.0 | 2.0 | 0.00 | 0.02 | 0.02 | 81 | 1007.8 |
| 20260504015659 | 40 | 109 | 2.0 | 4.0 | 0.00 | 0.02 | 0.02 | 81 | 1007.4 |
| 20260504015155 | 41 | 164 | 0.0 | 2.0 | 0.00 | 0.02 | 0.02 | 74 | 1007.6 |
| 20260504014650 | 42 | 258 | 0.0 | 1.0 | 0.00 | 0.02 | 0.02 | 68 | 1007.5 |
| 20260504014148 | 41 | 186 | 0.0 | 2.0 | 0.00 | 0.02 | 0.02 | 70 | 1007.4 |
| 20260504013646 | 41 | 262 | 2.0 | 3.0 | 0.00 | 0.02 | 0.02 | 70 | 1007.2 |
| 20260504013142 | 41 | 339 | 0.0 | 2.0 | 0.00 | 0.02 | 0.02 | 72 | 1007.4 |
| 20260504012640 | 40 | 140 | 0.0 | 2.0 | 0.00 | 0.02 | 0.02 | 76 | 1007.6 |